GW1675 Weather Reports


Display with metric or nautical units.
time (UTC)temp
F
wind
direction
speed
MPH
gust
MPH
rain 1hr
in
rain 24hr
in
rain mn
in
humidity
%
barometer
mb
20260901140105 83 129 7.0 10.0 0.00 0.00 0.00 67 1018.8
20260901134553 83 129 4.0 10.0 0.00 0.00 0.00 67 1018.9
20260901133050 83 129 4.0 10.0 0.00 0.00 0.00 67 1019.2
20260901131553 82 129 5.0 8.0 0.00 0.00 0.00 67 1019.1
20260901130053 82 129 5.0 10.0 0.00 0.00 0.00 66 1019.3
20260901124549 80 129 5.0 8.0 0.00 0.00 0.00 66 1019.4
20260901123108 78 129 5.0 10.0 0.00 0.00 0.00 66 1019.4
20260901121605 78 129 6.0 10.0 0.00 0.00 0.00 66 1019.5
20260901120059 78 129 8.0 12.0 0.00 0.00 0.00 66 1019.6
20260901114558 78 103 6.0 14.0 0.00 0.00 0.00 66 1019.7
20260901113110 79 82 5.0 12.0 0.00 0.00 0.00 66 1020.0
20260901111559 80 80 5.0 10.0 0.00 0.00 0.00 66 1019.9
20260901110100 83 79 3.0 10.0 0.00 0.00 0.00 67 1019.9
20260901104557 81 79 2.0 7.0 0.00 0.00 0.00 67 1019.8
20260901103052 81 79 6.0 13.0 0.00 0.00 0.00 67 1019.9
20260901101600 80 79 7.0 11.0 0.00 0.00 0.00 66 1019.8
20260901094554 78 79 7.0 14.0 0.00 0.00 0.00 66 1019.8
20260901093103 77 79 6.0 15.0 0.00 0.00 0.00 66 1019.6
20260901091558 76 78 9.0 16.0 0.00 0.00 0.00 66 1019.5
20260901090056 76 77 9.0 19.0 0.00 0.00 0.00 66 1019.3
20260901084600 74 75 11.0 22.0 0.00 0.00 0.00 65 1019.3
20260901083048 73 113 14.0 24.0 0.00 0.00 0.00 65 1019.3
20260901081557 73 19 15.0 23.0 0.00 0.00 0.00 65 1019.1
20260901080058 72 81 10.0 23.0 0.00 0.00 0.00 65 1019.1
20260901074604 72 31 9.0 21.0 0.00 0.00 0.00 65 1019.0
20260901073058 71 108 12.0 20.0 0.00 0.00 0.00 65 1018.9
20260901071557 71 102 12.0 19.0 0.00 0.00 0.00 65 1018.8
20260901070058 70 84 12.0 20.0 0.00 0.00 0.00 65 1018.6
20260901064552 69 78 10.0 19.0 0.00 0.00 0.00 64 1018.6
20260901063107 68 78 10.0 20.0 0.00 0.00 0.00 64 1018.5
20260901061557 68 75 10.0 22.0 0.00 0.00 0.00 64 1018.4
20260901060057 68 80 10.0 19.0 0.00 0.00 0.00 64 1018.5
20260901054554 68 84 8.0 20.0 0.00 0.00 0.00 64 1018.3
20260901053055 68 82 7.0 17.0 0.00 0.00 0.00 64 1018.3
20260901051614 68 82 7.0 15.0 0.00 0.00 0.00 64 1018.3
20260901050057 68 82 8.0 16.0 0.00 0.00 0.00 64 1018.5
20260901044552 68 81 8.0 16.0 0.00 0.00 0.00 64 1018.3
20260901043059 67 81 8.0 13.0 0.00 0.00 0.00 64 1018.3
20260901041555 67 81 3.0 10.0 0.00 0.00 0.00 64 1018.3
20260901040055 68 81 7.0 14.0 0.00 0.00 0.00 64 1018.4
20260901034609 69 81 6.0 11.0 0.00 0.00 0.00 64 1018.2
20260901033113 70 81 8.0 15.0 0.00 0.00 0.00 64 1018.3
20260901031603 70 81 9.0 16.0 0.00 0.00 0.00 65 1018.3
20260901030057 70 80 8.0 15.0 0.00 0.00 0.00 65 1018.2
20260901024555 70 79 8.0 15.0 0.00 0.00 0.00 64 1018.3
20260901023059 70 79 8.0 17.0 0.00 0.00 0.00 65 1018.3
20260901021559 71 78 9.0 16.0 0.00 0.00 0.00 65 1018.3
20260901020053 70 77 7.0 15.0 0.00 0.00 0.00 65 1018.4
20260901014601 71 76 7.0 15.0 0.00 0.00 0.00 65 1018.6
20260901013054 71 75 7.0 16.0 0.00 0.00 0.00 65 1018.9
20260901011556 71 75 7.0 11.0 0.00 0.00 0.00 65 1018.9
20260901010104 72 75 7.0 14.0 0.00 0.00 0.00 65 1018.8
20260901004616 73 75 7.0 13.0 0.00 0.00 0.00 65 1018.9
20260901003054 73 74 8.0 17.0 0.00 0.00 0.00 65 1019.0
20260901001559 74 73 8.0 16.0 0.00 0.00 0.00 65 1018.9
20260901000103 74 72 9.0 17.0 0.00 0.00 0.00 65 1019.0
20260831234603 74 72 10.0 19.0 0.00 0.00 0.00 65 1019.1
20260831233057 75 72 9.0 16.0 0.00 0.00 0.00 65 1019.1
20260831231600 75 70 11.0 18.0 0.00 0.00 0.00 65 1018.9
20260831230050 76 69 13.0 18.0 0.00 0.00 0.00 66 1019.0
20260831224604 76 70 12.0 20.0 0.00 0.00 0.00 66 1018.8
20260831223047 77 75 10.0 19.0 0.00 0.00 0.00 66 1018.9
20260831221556 78 79 11.0 20.0 0.00 0.00 0.00 66 1018.9
20260831220050 78 87 11.0 18.0 0.00 0.00 0.00 66 1018.9
20260831214559 79 96 9.0 15.0 0.00 0.00 0.00 66 1018.9
20260831213054 79 103 9.0 15.0 0.00 0.00 0.00 66 1019.0
20260831211554 80 152 6.0 12.0 0.00 0.00 0.00 66 1019.0
20260831210100 81 156 6.0 9.0 0.00 0.00 0.00 67 1018.8
20260831204556 81 157 5.0 9.0 0.00 0.00 0.00 67 1018.6
20260831203102 76 158 3.0 5.0 0.00 0.00 0.00 66 1018.5
20260831201551 75 0 0.0 2.0 0.00 0.00 0.00 66 1018.3
20260831194628 77 158 0.0 1.0 0.00 0.00 0.00 66 1017.9
20260831193057 78 0 0.0 0.0 0.00 0.00 0.00 66 1017.6
20260831191552 80 0 0.0 2.0 0.00 0.00 0.00 67 1017.6
20260831190122 81 158 1.0 2.0 0.00 0.00 0.00 67 1017.4
20260831184602 82 158 2.0 4.0 0.00 0.00 0.00 67 1017.4
20260831183052 83 158 3.0 6.0 0.00 0.00 0.00 67 1017.3
20260831181600 84 158 4.0 10.0 0.00 0.00 0.00 68 1017.3
20260831180055 84 158 7.0 10.0 0.00 0.00 0.00 68 1017.3
20260831174634 85 158 6.0 13.0 0.00 0.00 0.00 68 1017.4
20260831173057 85 155 6.0 10.0 0.00 0.00 0.00 68 1017.4
20260831171554 86 156 4.0 9.0 0.00 0.00 0.00 68 1017.4
20260831170100 86 156 6.0 12.0 0.00 0.00 0.00 68 1017.3
20260831164558 87 156 5.0 10.0 0.00 0.00 0.00 68 1017.4
20260831163055 88 158 5.0 12.0 0.00 0.00 0.00 69 1017.4
20260831161553 88 158 5.0 10.0 0.00 0.00 0.00 69 1017.4
20260831160059 87 158 9.0 13.0 0.00 0.00 0.00 69 1017.6
20260831154616 87 153 6.0 13.0 0.00 0.00 0.00 69 1017.7
20260831153108 87 148 6.0 13.0 0.00 0.00 0.00 69 1017.9
20260831151549 86 139 9.0 15.0 0.00 0.00 0.00 69 1018.1
20260831144559 85 110 6.0 13.0 0.00 0.00 0.00 69 1018.3
20260831143103 85 104 6.0 12.0 0.00 0.00 0.00 69 1018.4
20260831141558 85 103 6.0 11.0 0.00 0.00 0.00 69 1018.4